Home > Weather > Macon > Past weeks

Flag for U.S.A. Weather for the Past 2 Weeks in Macon, Georgia, U.S.A.

Now
42 °F

Clear.


Feels Like: 38 °F
Forecast: 36 / 53 °F
Wind: 6 mph from West

Location: Middle Georgia Regional Airport

Current Time: Feb 8, 2016 at 12:18:02 AM

Latest Report: Feb 7, 2016 at 10:53 PM


Visibility: 10 mi

Pressure: 30.01 "Hg

Humidity: 51%

Dew point: 25 °F

Location of MaconLocation

Historic Weather in Macon — Graph

°F

Macon Temperature Yesterday

Maximum temperature yesterday: 58 °F (at 3:53 PM)
Minimum temperature yesterday: 29 °F (at 6:53 AM)
Average temperature yesterday: 43 °F

High & Low Weather Summary for the Past Weeks

 TemperatureHumidityPressure
High77 °F (Feb 2, 12:53 PM)100% (Feb 1, 9:53 PM)30.40 "Hg (Feb 1, 9:53 PM)
Low24 °F (Jan 24, 4:53 AM)24% (Feb 5, 4:53 PM)29.82 "Hg (Jan 28, 5:53 PM)
Average49 °F74%30.10 "Hg
* Reported Jan 23 9:53 PM — Feb 7 9:53 PM, Macon, Weather by CustomWeather, © 2016

Note: Actual official high and low records may vary slightly from our data, if they occured in-between our weather recording intervals... More about our weather records

Advertising

Macon Weather History for the Previous 24 Hours

 ConditionsComfort  
Time TempWeatherWind HumidityBarometerVisibility
9:53 PM
Sun, Feb 7
44 °FClear.9 mph49%30.00 "Hg10 mi
8:53 PM42 °FClear.6 mph57%29.99 "Hg10 mi
7:53 PM42 °FClear.5 mph57%30.00 "Hg10 mi
6:53 PM50 °FClear.6 mph36%30.00 "Hg10 mi
5:53 PM54 °FSunny.8 mph30%29.98 "Hg10 mi
4:53 PM57 °FSunny.13 mph27%29.98 "Hg10 mi
3:53 PM58 °FSunny.14 mph25%30.00 "Hg10 mi
2:53 PM57 °FSunny.12 mph25%30.01 "Hg10 mi
1:53 PM56 °FSunny.8 mph27%30.05 "Hg10 mi
12:53 PM55 °FSunny.8 mph29%30.10 "Hg10 mi
11:53 AM53 °FSunny.14 mph30%30.13 "Hg10 mi
10:53 AM50 °FSunny.7 mph35%30.16 "Hg10 mi
9:53 AM44 °FSunny.6 mph49%30.15 "Hg10 mi
8:53 AM38 °FSunny.7 mph63%30.16 "Hg10 mi
7:53 AM30 °FSunny.6 mph82%30.14 "Hg10 mi
6:53 AM29 °FClear.5 mph85%30.13 "Hg10 mi
5:53 AM30 °FClear.5 mph85%30.12 "Hg10 mi
4:53 AM31 °FClear.6 mph85%30.13 "Hg10 mi
3:53 AM32 °FClear.5 mph85%30.14 "Hg10 mi
2:53 AM32 °FClear.5 mph88%30.13 "Hg10 mi
1:53 AM33 °FClear.No wind85%30.14 "Hg10 mi
12:53 AM33 °FClear.6 mph88%30.16 "Hg10 mi
Weather by CustomWeather, © 2016

See weather overviewHow to use our weather pages